Simultaneous Nadir Overpasses (SNOs) Predictions

Prediction of SNOs between FY3D and LANDSAT-8 Satellite Orbit:

Table of predicted SNOs for the next 14.0 days since TLE Epoch: 2/22/2025
Index Date (FY3D) Time (FY3D) Lat,Lon (FY3D) SZA (FY3D ) Date (LANDSAT-8) Time (LANDSAT-8) Lat,Lon (LANDSAT-8) SZA (LANDSAT-8 ) Distance(km) Time Diff (sec)
1 02/24/2025 00:01:36 -75.44, 6.02 95.18 02/24/2025 00:02:32 -75.44, 5.89 95.18 3.52 56
2 02/24/2025 00:52:20 75.38, 173.50 84.76 02/24/2025 00:51:58 75.41, 173.47 84.79 3.12 22
3 02/26/2025 16:18:27 -75.44, 121.85 96.17 02/26/2025 16:18:57 -75.47, 121.88 96.14 3.01 30
4 02/26/2025 17:09:11 75.39, -70.67 83.77 02/26/2025 17:08:24 75.39, -70.70 83.77 0.83 47
5 03/01/2025 07:44:40 75.77, 69.32 83.15 03/01/2025 07:45:50 75.68, 70.75 83.09 40.47 70
6 03/01/2025 08:35:18 -75.46,-122.35 97.16 03/01/2025 08:35:22 -75.47,-122.24 97.16 3.01 4
7 03/01/2025 09:26:01 75.37, 45.27 82.74 03/01/2025 09:24:49 75.38, 45.17 82.75 3.31 72
8 03/04/2025 00:01:23 75.48,-173.87 81.85 03/04/2025 00:02:17 75.49,-173.91 81.87 1.66 54
9 03/04/2025 00:52:07 -75.45, -6.45 98.20 03/04/2025 00:51:46 -75.42, -6.46 98.22 2.54 21
10 03/06/2025 16:18:13 75.48, -58.00 80.82 03/06/2025 16:18:41 75.46, -58.09 80.80 3.08 28



Historial Predications of SNOs between FY3D and LANDSAT-8
